TimeCDT,TemperatureF,Dew PointF,Humidity,Sea Level PressureIn,VisibilityMPH,Wind Direction,Wind SpeedMPH,Gust SpeedMPH,PrecipitationIn,Events,Conditions,WindDirDegrees,DateUTC
12:07 AM,39.2,28.4,65,30.24,8.0,Calm,Calm,-,N/A,,Clear,0,2012-10-29 05:07:00
12:11 AM,39.2,28.4,65,30.24,7.0,Calm,Calm,-,N/A,,Clear,0,2012-10-29 05:11:00
12:25 AM,39.2,30.2,70,30.24,9.0,Calm,Calm,-,N/A,,Clear,0,2012-10-29 05:25:00
12:32 AM,39.2,30.2,70,30.24,9.0,Calm,Calm,-,N/A,,Clear,0,2012-10-29 05:32:00
12:55 AM,37.9,29.7,72,30.23,7.0,Calm,Calm,-,N/A,,Clear,0,2012-10-29 05:55:00
1:14 AM,39.2,30.2,70,30.23,5.0,Calm,Calm,-,N/A,,Haze,0,2012-10-29 06:14:00
1:55 AM,39.0,28.9,67,30.23,10.0,Calm,Calm,-,N/A,,Clear,0,2012-10-29 06:55:00
2:55 AM,35.6,29.1,77,30.24,10.0,Calm,Calm,-,N/A,,Clear,0,2012-10-29 07:55:00
3:26 AM,37.4,28.4,70,30.23,8.0,Calm,Calm,-,N/A,,Clear,0,2012-10-29 08:26:00
3:30 AM,37.4,28.4,70,30.23,8.0,Calm,Calm,-,N/A,,Clear,0,2012-10-29 08:30:00
3:55 AM,36.9,29.1,74,30.23,9.0,Calm,Calm,-,N/A,,Clear,0,2012-10-29 08:55:00
4:55 AM,34.7,29.1,80,30.24,7.0,Calm,Calm,-,N/A,,Clear,0,2012-10-29 09:55:00
5:19 AM,39.2,28.4,65,30.24,8.0,Calm,Calm,-,N/A,,Clear,0,2012-10-29 10:19:00
5:30 AM,35.6,28.4,75,30.25,8.0,Calm,Calm,-,N/A,,Clear,0,2012-10-29 10:30:00
5:55 AM,36.7,29.1,74,30.25,8.0,Calm,Calm,-,N/A,,Clear,0,2012-10-29 10:55:00
6:55 AM,36.3,29.3,76,30.25,10.0,Calm,Calm,-,N/A,,Clear,0,2012-10-29 11:55:00
7:09 AM,35.6,28.4,75,30.25,9.0,Calm,Calm,-,N/A,,Clear,0,2012-10-29 12:09:00
7:21 AM,35.6,28.4,75,30.26,7.0,Calm,Calm,-,N/A,,Clear,0,2012-10-29 12:21:00
7:55 AM,35.8,29.1,77,30.26,10.0,Calm,Calm,-,N/A,,Clear,0,2012-10-29 12:55:00
8:55 AM,37.4,31.6,80,30.27,10.0,East,3.5,-,N/A,,Clear,100,2012-10-29 13:55:00
9:55 AM,46.8,32.5,58,30.28,10.0,SE,4.6,-,N/A,,Clear,140,2012-10-29 14:55:00
10:55 AM,53.4,32.2,44,30.27,10.0,South,6.9,-,N/A,,Clear,170,2012-10-29 15:55:00
11:55 AM,60.1,31.6,34,30.24,10.0,SSE,10.4,-,N/A,,Clear,160,2012-10-29 16:55:00
12:55 PM,64.0,30.9,29,30.22,10.0,SSE,16.1,-,N/A,,Clear,160,2012-10-29 17:55:00
1:55 PM,65.8,32.4,29,30.18,10.0,South,13.8,-,N/A,,Clear,180,2012-10-29 18:55:00
2:55 PM,68.0,33.3,28,30.14,10.0,South,15.0,-,N/A,,Clear,190,2012-10-29 19:55:00
3:55 PM,69.3,34.2,27,30.12,10.0,South,8.1,-,N/A,,Clear,190,2012-10-29 20:55:00
4:55 PM,69.1,34.2,28,30.10,10.0,South,10.4,-,N/A,,Clear,170,2012-10-29 21:55:00
5:55 PM,67.8,34.5,29,30.09,10.0,South,10.4,-,N/A,,Clear,170,2012-10-29 22:55:00
6:55 PM,61.0,34.5,37,30.09,10.0,SSE,9.2,-,N/A,,Scattered Clouds,160,2012-10-29 23:55:00
7:55 PM,53.6,32.5,45,30.11,10.0,SE,5.8,-,N/A,,Clear,140,2012-10-30 00:55:00
8:55 PM,50.7,31.8,48,30.11,10.0,ESE,4.6,-,N/A,,Clear,120,2012-10-30 01:55:00
9:55 PM,47.1,31.8,55,30.11,10.0,ESE,5.8,-,N/A,,Clear,120,2012-10-30 02:55:00
10:55 PM,45.7,31.8,58,30.10,10.0,ESE,5.8,-,N/A,,Clear,120,2012-10-30 03:55:00
11:55 PM,43.0,33.1,68,30.09,10.0,East,5.8,-,N/A,,Clear,100,2012-10-30 04:55:00